User: anonymous   Login
Location: Daybis Observatory
(33.4273°N, 88.8061°W)
Time: 07:30:03
(UTC-06:00)
Language:

Coronas F rocket - Orbit

View from above orbital plane
View from above orbital plane
View from above satellite
View from above satellite

Ground track
Ground track

The orbit data is extracted from the following two-line orbital elements,

1 26874U 01032B   16036.83533760  .00024494  00000-0  16938-3 0  9997
2 26874  82.4609  66.1423 0007546   1.7503 358.3786 15.74320919814776
Epoch (UTC): 05 February 2016 20:02:53
Eccentricity: 0.0007546
inclination: 82.4609°
perigee height: 341 km
apogee height: 351 km
right ascension of ascending node: 66.1423°
argument of perigee: 1.7503°
revolutions per day: 15.74320919
mean anomaly at epoch: 358.3786°
orbit number at epoch: 81477

The dashed part of the orbit path shows where the satellite is in the earth's shadow,  

DLR